Location: Proctor
(47.8934°N, 114.3048°W)
Time: 11:33:00
(UTC+00:00)

Transit 4A - Pass Details

Date: 01 July 2024
Orbit: 870 x 973 km, 66.8° (Epoch: 13 July)

Event Time Altitude Azimuth Distance (km) Brightness Sun altitude
Rises 09:52:55 0° 323° (NW) 3,481 11.2 -13.1°
Reaches altitude 10° 09:56:21 10° 344° (NNW) 2,553 10.8 -12.8°
Maximum altitude 10:00:10 17° 24° (NNE) 2,090 11.0 -12.5°
Drops below altitude 10° 10:04:02 10° 65° (ENE) 2,588 11.2 -12.1°
Sets 10:07:31 0° 85° (E) 3,548 11.6 -11.8°
